Back to catalog

STARLINK-31074

AliveCommunicationsVLEO
NORAD 58601·PAYLOAD·🇺🇸 United States

Launched Dec 19, 2023 from Cape Canaveral Space Force Station

Loading…

Next Passes (next 24 hours)

TLE

FreshSource: CelesTrak SupGP

Epoch: Sep 14, 2026, 15:10 UTC

1 58601C 23200N   26257.63243056  .00000097  00000+0  35034-5 0  2570
2 58601  43.0018 181.5836 0001633 263.3237 316.6784 15.27563043    11

Track STARLINK-31074 in real time with AllMySat

Download on the App Store